Location: Aalen
(48.8330°N, 10.1000°E)
Time: 09:07:50
(UTC+02:00)

Explorer 11/Cluster Stage 4 - All Passes

Search period start: 24 July 2021 00:00
Search period end: 03 August 2021 00:00
Orbit: 467 x 1257 km, 28.8° (Epoch: 23 July)

Date Brightness Start Highest point End Pass type
(mag) Time Alt. Az. Time Alt. Az. Time Alt. Az.
25 Jul - 15:06:52 10° SSW 15:08:24 11° S 15:09:52 10° S daylight
26 Jul - 13:08:02 10° S 13:09:34 11° S 13:11:03 10° SSE daylight
26 Jul - 14:54:49 10° SSW 14:57:05 12° S 14:59:13 10° SSE daylight
27 Jul - 12:55:30 10° SSW 12:58:11 12° S 13:00:46 10° SSE daylight
27 Jul - 14:43:00 10° SSW 14:45:44 12° S 14:48:20 10° SSE daylight
28 Jul - 12:43:22 10° SSW 12:46:47 13° S 12:50:02 10° SSE daylight
28 Jul - 14:31:16 10° SW 14:34:22 13° S 14:37:17 10° SSE daylight
29 Jul - 12:31:25 10° SSW 12:35:21 15° S 12:39:06 10° SE daylight
29 Jul - 14:19:38 10° SW 14:22:59 13° S 14:26:07 10° SSE daylight
30 Jul - 10:35:37 10° SSE 10:36:15 10° SSE 10:36:54 10° SSE daylight
30 Jul - 12:19:36 10° SSW 12:23:55 15° S 12:28:03 10° SE daylight
30 Jul - 14:08:04 10° SW 14:11:34 14° SSW 14:14:52 10° SSE daylight
31 Jul - 10:22:30 10° S 10:24:47 11° SSE 10:27:03 10° SE daylight
31 Jul - 12:07:53 10° SSW 12:12:29 16° S 12:16:53 10° SE daylight
31 Jul - 13:56:34 10° SW 14:00:08 14° SSW 14:03:31 10° SSE daylight
01 Aug - 10:10:18 10° S 10:13:18 12° SSE 10:16:18 10° SE daylight
01 Aug - 11:56:15 10° SW 12:01:00 17° S 12:05:38 10° SE daylight
01 Aug - 13:45:10 10° SW 13:48:41 13° SSW 13:52:04 10° SSE daylight
02 Aug - 09:58:21 10° S 10:01:48 13° SSE 10:05:18 10° SE daylight
02 Aug - 11:44:41 10° SW 11:49:32 17° S 11:54:18 10° SE daylight
02 Aug - 13:33:51 10° SW 13:37:13 13° SSW 13:40:30 10° S daylight
